sat.trackr.live / text

‹ back to catalog

STARLINK-35456

NORAD 65867 · 2025-223P

PAYLOAD ACTIVE UNKNOWN

§ Identity

Operator
Country
US
Launch date
2025-10-03
Launch site
AFWTR
Launch vehicle
Mass (kg)
RCS (m²)

Purposes: comms

External: N2YO · Heavens-Above · Gunter

§ Orbital elements

Epoch: 2026-05-25T03:36:15.362784Z

Period
94.10 min
Inclination
53.1600°
Eccentricity
0.0001332
Mean motion
15.30207572 rev/d
Perigee alt
474.3 km
Apogee alt
476.1 km
Semi-major
6,853.3 km
B*
6.8820e-4
RAAN
298.9118°
Arg perigee
76.1182°
Mean anomaly
283.9967°
Rev number
3,591

§ Raw data

STARLINK-354561 65867U 25223P   26145.15017781  .00020083  00000+0  68820-3 0  99932 65867  53.1600 298.9118 0001332  76.1182 283.9967 15.30207572 35915

JSON: /api/v1/satellites/65867 · /tle

For live sub-satellite position, see the globe view (requires WebGL).

§ Visibility from observer

Set your observer location to see the next 7 days of passes ≥ 10°. The values pass through the URL so the page stays shareable.

No JS? Fill the form by hand. The geolocation button needs JavaScript.